Weather Roundup
Issued by NWS

Home | Current Version | Previous Version | Text Only | Print | Product List | Glossary On
Versions: 1 2 3 4 5 6 7 8 9 10 11 12 13 14 15 16 17 18 19 20 21 22 23 24 25 26 27 28 29 30 31 32 33 34 35 36 37 38 39 40 41 42 43 44 45 46 47 48 49 50
000
NZUS93 KARX 230310
HRRWXR

CURRENT HOURLY OBSERVATIONS ACROSS
MUCH OF THE UPPER MISSISSIPPI VALLEY
NATIONAL WEATHER SERVICE LA CROSSE WI
900 PM CST SAT NOV 22 2014


...SOUTHEAST MINNESOTA...


CITY           SKY/WX    TMP DP  RH WIND       PRES   REMARKS
ROCHESTER      CLOUDY    42  41  96 S16       29.61F FOG
ROCHESTER/MAYO CLOUDY    41  40  99 SE9       29.60F
WINONA         FOG       37  37 100 CALM      29.65F VSB 1/2
AUSTIN         CLOUDY    43  43 100 S9        29.60S FOG
ALBERT LEA     CLOUDY    45  45 100 S9        29.58S FOG
DODGE CENTER   CLOUDY    43  43 100 S20       29.58F FOG
PRESTON        FOG       43  42  97 S18       29.63F VSB 1/2
OWATONNA       CLOUDY    43  39  87 S12       29.57S FOG
FARIBAULT      MOCLDY    41  39  93 S10       29.57S FOG
$$

...ELSEWHERE IN MINNESOTA...


CITY           SKY/WX    TMP DP  RH WIND       PRES   REMARKS
MINNEAPOLIS    CLOUDY    36  36 100 SE6       29.58F FOG     WCI  31
INTNL FALLS    CLOUDY    33  30  88 SE9       29.49F WCI  25
DULUTH         CLOUDY    33  30  88 SE13      29.57F FOG     WCI  24
RED WING       FOG       37  37 100 SE10      29.60F VSB 1/2 WCI  30
REDWOOD FALLS  PTCLDY    34  33  96 SE12      29.47S FOG     WCI  25
MANKATO        CLOUDY    39  37  93 S9G16     29.54F WCI  33
WORTHINGTON    CLOUDY    39  39 100 S20G25    29.50S WCI  30
FAIRMONT       CLOUDY    46  43  87 S21G26    29.53S
$$

...SOUTHWEST WISCONSIN...


CITY           SKY/WX    TMP DP  RH WIND       PRES   REMARKS
LA CROSSE      CLOUDY    43  41  93 S13       29.66F FOG
PRAIRIE DU CHI CLOUDY    51  49  91 S10       29.71S FOG
BOSCOBEL       CLOUDY    44  42  93 CALM      29.72F FOG
LONE ROCK      CLOUDY    52  47  83 S5        29.74F HAZE
PLATTEVILLE    CLOUDY    49  49  97 S13       29.76R
FORT MC COY    MOCLDY    43  43 100 S5        29.69F FOG
CAMP DOUGLAS   CLOUDY    39  39 100 SE3       29.70F FOG
VIROQUA        CLOUDY    44  44 100 S9        29.69F VSB 1
WIS DELLS      CLOUDY    46  44  94 S9        29.73S FOG
$$

...ELSEWHERE IN WISCONSIN...


CITY           SKY/WX    TMP DP  RH WIND       PRES   REMARKS
MILWAUKEE      MOCLDY    38  37  97 S5        29.81S FOG     WCI  34
MADISON        CLOUDY    48  45  89 S7        29.76S FOG
GREEN BAY      FOG       39  38  96 CALM      29.78R VSB 1
EAU CLAIRE     FOG       36  35  96 SE6       29.65F VSB 3/4 WCI  31
BLACK RVR FLS  FOG       38  38 100 CALM      29.68F VSB 1/2
MEDFORD        FOG       34  34 100 SE6       29.68F VSB 1/4 WCI  29
WAUSAU         CLOUDY    36  36 100 CALM      29.70F FOG
WIS RAPIDS     CLOUDY    38  36  92 SE6       29.74S WCI  33
MARSHFIELD     FOG       36  36 100 SE7       29.70F VSB 1/4 WCI  30
RICE LAKE      CLOUDY    35  35  97 SE7       29.64F FOG     WCI  29
$$

...NORTHEAST IOWA...


CITY           SKY/WX    TMP DP  RH WIND       PRES   REMARKS
DECORAH        FOG       48  48 100 S12G21    29.66F VSB 3/4
MASON CITY     FOG       47  47 100 S15       29.62S VSB 3/4
CHARLES CITY   FOG       48  48 100 S14       29.65F VSB<1/4
OELWEIN        CLOUDY    50  50 100 S14       29.70S FOG
$$

...ELSEWHERE IN IOWA...


CITY           SKY/WX    TMP DP  RH WIND       PRES   REMARKS
DES MOINES     PTCLDY    54  50  86 S14       29.67S
IOWA CITY      CLOUDY    54  50  86 S14       29.76F
FORT DODGE     CLOUDY    52  48  87 S14G23    29.60F
$$

...NORTHERN ILLINOIS...


CITY           SKY/WX    TMP DP  RH WIND       PRES   REMARKS
CHICAGO-OHARE  CLOUDY    51  45  79 S15       29.85S
CHICAGO-MIDWAY CLOUDY    52  47  83 SW10      29.88R
MOLINE         PTCLDY    53  47  79 S13G21    29.78S
ROCKFORD       CLOUDY    49  45  86 S9        29.83S
PEORIA         MOCLDY    53  47  79 S16       29.86F
$$

NOTE: "FAIR" INDICATES FEW OR NO CLOUDS BELOW 12,000 FEET WITH NO
SIGNIFICANT WEATHER AND/OR OBSTRUCTIONS TO VISIBILITY. WIND
SPEEDS ARE IN MILES-PER-HOUR.



USA.gov is the U.S. government's official web portal to all federal, state and local government web resources and services.